| time (UTC) | temp F | wind direction | speed knots | gust knots | rain 1hr in | rain 24hr in | rain mn in | humidity % | barometer mb |
| 20260503211459 | 65 | 279 | 4.3 | 6.1 | 0.00 | 0.00 | 0.00 | 38 | |
| 20260503210954 | 64 | 308 | 3.5 | 13.0 | 0.00 | 0.00 | 0.00 | 38 | |
| 20260503210451 | 65 | 270 | 4.3 | 11.3 | 0.00 | 0.00 | 0.00 | 37 | |
| 20260503205946 | 63 | 315 | 3.5 | 8.7 | 0.00 | 0.00 | 0.00 | 39 | |
| 20260503205443 | 64 | 251 | 5.2 | 11.3 | 0.00 | 0.00 | 0.00 | 37 | |
| 20260503204939 | 64 | 290 | 6.1 | 12.2 | 0.00 | 0.00 | 0.00 | 37 | |
| 20260503204436 | 64 | 279 | 2.6 | 5.2 | 0.00 | 0.00 | 0.00 | 38 | |
| 20260503203933 | 66 | 317 | 5.2 | 7.0 | 0.00 | 0.00 | 0.00 | 36 | |
| 20260503203431 | 64 | 265 | 1.7 | 6.1 | 0.00 | 0.00 | 0.00 | 38 | |
| 20260503202927 | 64 | 194 | 2.6 | 7.8 | 0.00 | 0.00 | 0.00 | 38 | |
| 20260503202426 | 65 | 291 | 1.7 | 6.1 | 0.00 | 0.00 | 0.00 | 37 | |
| 20260503201924 | 65 | 316 | 4.3 | 7.8 | 0.00 | 0.00 | 0.00 | 36 | |
| 20260503201421 | 66 | 258 | 6.1 | 7.0 | 0.00 | 0.00 | 0.00 | 34 | |
| 20260503200918 | 65 | 357 | 1.7 | 7.8 | 0.00 | 0.00 | 0.00 | 37 | |
| 20260503200414 | 66 | 245 | 0.9 | 12.2 | 0.00 | 0.00 | 0.00 | 36 | |
| 20260503195911 | 66 | 284 | 3.5 | 7.8 | 0.00 | 0.00 | 0.00 | 35 | |
| 20260503195409 | 65 | 254 | 3.5 | 13.0 | 0.00 | 0.00 | 0.00 | 37 | |
| 20260503194905 | 66 | 169 | 0.9 | 6.1 | 0.00 | 0.00 | 0.00 | 36 | |
| 20260503194402 | 66 | 317 | 4.3 | 12.2 | 0.00 | 0.00 | 0.00 | 36 | |
| 20260503193858 | 65 | 224 | 2.6 | 5.2 | 0.00 | 0.00 | 0.00 | 38 | |
| 20260503193353 | 65 | 256 | 4.3 | 7.0 | 0.00 | 0.00 | 0.00 | 37 | |
| 20260503192849 | 64 | 289 | 1.7 | 7.8 | 0.00 | 0.00 | 0.00 | 38 | |
| 20260503192345 | 64 | 268 | 0.9 | 11.3 | 0.00 | 0.00 | 0.00 | 38 | |
| 20260503191841 | 63 | 348 | 5.2 | 7.8 | 0.00 | 0.00 | 0.00 | 37 | |
| 20260503191339 | 64 | 309 | 1.7 | 2.6 | 0.00 | 0.00 | 0.00 | 38 | |
| 20260503190835 | 64 | 247 | 2.6 | 12.2 | 0.00 | 0.00 | 0.00 | 36 | |
| 20260503190332 | 64 | 216 | 2.6 | 7.8 | 0.00 | 0.00 | 0.00 | 38 | |
| 20260503185829 | 64 | 278 | 2.6 | 8.7 | 0.00 | 0.00 | 0.00 | 37 | |
| 20260503185325 | 66 | 339 | 5.2 | 11.3 | 0.00 | 0.00 | 0.00 | 35 | |
| 20260503184820 | 65 | 264 | 3.5 | 5.2 | 0.00 | 0.00 | 0.00 | 36 | |
| 20260503184316 | 65 | 268 | 6.1 | 7.8 | 0.00 | 0.00 | 0.00 | 35 | |
| 20260503183812 | 64 | 261 | 5.2 | 9.6 | 0.00 | 0.00 | 0.00 | 36 | |
| 20260503183309 | 66 | 257 | 6.1 | 11.3 | 0.00 | 0.00 | 0.00 | 36 | |
| 20260503182807 | 66 | 307 | 3.5 | 7.0 | 0.00 | 0.00 | 0.00 | 37 | |
| 20260503182306 | 65 | 277 | 5.2 | 11.3 | 0.00 | 0.00 | 0.00 | 37 | |
| 20260503181803 | 66 | 264 | 5.2 | 7.0 | 0.00 | 0.00 | 0.00 | 36 | |
| 20260503181300 | 64 | 304 | 3.5 | 7.8 | 0.00 | 0.00 | 0.00 | 37 | |
| 20260503180756 | 64 | 262 | 2.6 | 6.1 | 0.00 | 0.00 | 0.00 | 38 | |
| 20260503180254 | 64 | 264 | 2.6 | 9.6 | 0.00 | 0.00 | 0.00 | 38 | |
| 20260503175750 | 65 | 312 | 4.3 | 12.2 | 0.00 | 0.00 | 0.00 | 36 | |
| 20260503175249 | 65 | 263 | 1.7 | 7.8 | 0.00 | 0.00 | 0.00 | 38 | |
| 20260503174744 | 64 | 230 | 0.9 | 7.0 | 0.00 | 0.00 | 0.00 | 40 | |
| 20260503174242 | 64 | 248 | 1.7 | 6.1 | 0.00 | 0.00 | 0.00 | 40 | |
| 20260503173742 | 61 | 293 | 4.3 | 7.0 | 0.00 | 0.00 | 0.00 | 39 | |
| 20260503173238 | 62 | 262 | 7.8 | 9.6 | 0.00 | 0.00 | 0.00 | 38 | |
| 20260503172735 | 62 | 281 | 0.9 | 6.1 | 0.00 | 0.00 | 0.00 | 38 | |
| 20260503172232 | 61 | 233 | 3.5 | 8.7 | 0.00 | 0.00 | 0.00 | 39 | |
| 20260503171729 | 61 | 328 | 5.2 | 8.7 | 0.00 | 0.00 | 0.00 | 38 | |
| 20260503171226 | 61 | 209 | 1.7 | 11.3 | 0.00 | 0.00 | 0.00 | 39 | |
| 20260503170723 | 61 | 305 | 3.5 | 8.7 | 0.00 | 0.00 | 0.00 | 38 | |
| 20260503170220 | 61 | 204 | 2.6 | 8.7 | 0.00 | 0.00 | 0.00 | 38 | |
| 20260503160142 | 60 | 244 | 2.6 | 7.0 | 0.00 | 0.00 | 0.00 | 40 | |
| 20260503150612 | 59 | 208 | 2.6 | 6.1 | 0.00 | 0.00 | 0.00 | 44 | |
| 20260503150108 | 59 | 310 | 1.7 | 2.6 | 0.00 | 0.00 | 0.00 | 42 | |
| 20260503131001 | 51 | 294 | 2.6 | 6.1 | 0.00 | 0.00 | 0.00 | 47 | |
| 20260503130459 | 51 | 295 | 2.6 | 6.1 | 0.00 | 0.00 | 0.00 | 49 | |
| 20260503110344 | 39 | 235 | 1.7 | 2.6 | 0.00 | 0.00 | 0.00 | 64 | |
| 20260503090235 | 35 | 238 | 0.0 | 0.9 | 0.00 | 0.00 | 0.00 | 71 | |
| 20260503081202 | 36 | 248 | 0.0 | 0.9 | 0.00 | 0.00 | 0.00 | 72 | |
| 20260503080658 | 36 | 244 | 0.0 | 0.9 | 0.00 | 0.00 | 0.00 | 72 | |
| 20260503080155 | 36 | 247 | 0.0 | 0.9 | 0.00 | 0.00 | 0.00 | 71 | |
| 20260503072632 | 36 | 251 | 0.0 | 0.0 | 0.00 | 0.00 | 0.00 | 72 | |
| 20260503072129 | 36 | 252 | 0.0 | 0.9 | 0.00 | 0.00 | 0.00 | 72 | |
| 20260503071626 | 36 | 240 | 0.0 | 0.0 | 0.00 | 0.00 | 0.00 | 72 | |
| 20260503071122 | 36 | 236 | 0.0 | 0.0 | 0.00 | 0.00 | 0.00 | 72 | |
| 20260503070619 | 36 | 260 | 0.9 | 0.9 | 0.00 | 0.00 | 0.00 | 73 | |
| 20260503070118 | 36 | 256 | 0.0 | 0.0 | 0.00 | 0.00 | 0.00 | 73 | |
| 20260503055038 | 37 | 242 | 0.0 | 0.0 | 0.00 | 0.00 | 0.00 | 71 | |
| 20260503054534 | 37 | 251 | 0.0 | 0.9 | 0.00 | 0.00 | 0.00 | 71 | |
| 20260503054031 | 37 | 247 | 0.0 | 0.0 | 0.00 | 0.00 | 0.00 | 71 | |
| 20260503053529 | 37 | 242 | 0.0 | 0.9 | 0.00 | 0.00 | 0.00 | 71 | |
| 20260503053027 | 37 | 242 | 0.0 | 0.0 | 0.00 | 0.00 | 0.00 | 70 | |
| 20260503052523 | 37 | 251 | 0.0 | 0.0 | 0.00 | 0.00 | 0.00 | 70 | |
| 20260503052019 | 37 | 254 | 0.0 | 0.0 | 0.00 | 0.00 | 0.00 | 71 | |
| 20260503051515 | 37 | 252 | 0.0 | 0.0 | 0.00 | 0.00 | 0.00 | 71 | |
| 20260503051013 | 37 | 244 | 0.0 | 0.0 | 0.00 | 0.00 | 0.00 | 71 | |
| 20260503050508 | 37 | 247 | 0.0 | 0.0 | 0.00 | 0.00 | 0.00 | 71 | |
| 20260503050006 | 37 | 247 | 0.0 | 0.0 | 0.00 | 0.00 | 0.00 | 71 | |
| 20260503045503 | 37 | 244 | 0.0 | 0.0 | 0.00 | 0.00 | 0.00 | 71 | |
| 20260503045000 | 37 | 246 | 0.0 | 0.0 | 0.00 | 0.00 | 0.00 | 71 | |
| 20260503044457 | 37 | 246 | 0.0 | 0.0 | 0.00 | 0.00 | 0.00 | 71 | |
| 20260503043955 | 37 | 248 | 0.0 | 0.0 | 0.00 | 0.00 | 0.00 | 71 | |
| 20260503043450 | 37 | 248 | 0.0 | 0.0 | 0.00 | 0.00 | 0.00 | 70 | |
| 20260503042947 | 37 | 248 | 0.0 | 0.0 | 0.00 | 0.00 | 0.00 | 70 | |
| 20260503042444 | 37 | 251 | 0.0 | 0.0 | 0.00 | 0.00 | 0.00 | 70 | |
| 20260503041941 | 37 | 246 | 0.0 | 0.0 | 0.00 | 0.00 | 0.00 | 70 | |
| 20260503041437 | 37 | 247 | 0.0 | 0.0 | 0.00 | 0.00 | 0.00 | 69 | |
| 20260503040935 | 38 | 247 | 0.0 | 0.0 | 0.00 | 0.00 | 0.00 | 69 | |
| 20260503040432 | 38 | 239 | 0.0 | 0.0 | 0.00 | 0.00 | 0.00 | 69 | |
| 20260503035929 | 38 | 238 | 0.0 | 0.0 | 0.00 | 0.03 | 0.03 | 68 | |
| 20260503035426 | 38 | 238 | 0.0 | 0.0 | 0.00 | 0.03 | 0.03 | 68 | |
| 20260503034924 | 38 | 238 | 0.0 | 0.0 | 0.00 | 0.03 | 0.03 | 68 | |
| 20260503034421 | 38 | 238 | 0.0 | 0.0 | 0.00 | 0.03 | 0.03 | 68 | |
| 20260503033918 | 38 | 238 | 0.0 | 0.0 | 0.00 | 0.03 | 0.03 | 69 | |
| 20260503033415 | 38 | 238 | 0.0 | 0.0 | 0.00 | 0.03 | 0.03 | 69 | |
| 20260503032913 | 37 | 235 | 0.0 | 0.0 | 0.00 | 0.03 | 0.03 | 70 | |
| 20260503032412 | 37 | 235 | 0.0 | 0.0 | 0.00 | 0.03 | 0.03 | 71 | |
| 20260503031909 | 37 | 235 | 0.0 | 0.0 | 0.00 | 0.03 | 0.03 | 71 | |
| 20260503031407 | 37 | 235 | 0.0 | 0.0 | 0.00 | 0.03 | 0.03 | 71 | |
| 20260503030903 | 37 | 235 | 0.0 | 0.0 | 0.00 | 0.03 | 0.03 | 71 | |
| 20260503030359 | 38 | 235 | 0.0 | 0.0 | 0.00 | 0.03 | 0.03 | 70 | |
| 20260503025856 | 38 | 234 | 0.0 | 0.0 | 0.00 | 0.03 | 0.03 | 70 | |
| 20260503025353 | 38 | 234 | 0.0 | 0.0 | 0.00 | 0.03 | 0.03 | 70 | |
| 20260503024850 | 38 | 234 | 0.0 | 0.0 | 0.00 | 0.03 | 0.03 | 70 | |
| 20260503024347 | 39 | 234 | 0.0 | 0.0 | 0.00 | 0.03 | 0.03 | 68 | |
| 20260503023844 | 39 | 233 | 0.0 | 0.0 | 0.00 | 0.03 | 0.03 | 68 | |
| 20260503023341 | 39 | 233 | 0.0 | 0.0 | 0.00 | 0.03 | 0.03 | 67 | |
| 20260503022837 | 39 | 232 | 0.0 | 0.0 | 0.00 | 0.03 | 0.03 | 66 | |
| 20260503022332 | 40 | 229 | 0.0 | 0.0 | 0.00 | 0.03 | 0.03 | 65 | |
| 20260503021829 | 40 | 224 | 0.0 | 0.0 | 0.00 | 0.03 | 0.03 | 64 | |
| 20260503021325 | 41 | 231 | 0.0 | 0.0 | 0.00 | 0.03 | 0.03 | 63 | |
| 20260503020823 | 40 | 231 | 0.0 | 0.0 | 0.00 | 0.03 | 0.03 | 63 | |
| 20260503020321 | 41 | 233 | 0.0 | 0.0 | 0.00 | 0.03 | 0.03 | 63 | |
| 20260503015817 | 41 | 233 | 0.0 | 0.0 | 0.00 | 0.03 | 0.03 | 62 | |
| 20260503015314 | 41 | 233 | 0.0 | 0.0 | 0.00 | 0.03 | 0.03 | 62 | |
| 20260503014809 | 41 | 233 | 0.0 | 0.0 | 0.00 | 0.03 | 0.03 | 60 | |
| 20260503014307 | 42 | 232 | 0.0 | 0.0 | 0.00 | 0.03 | 0.03 | 59 | |
| 20260503013804 | 42 | 232 | 0.0 | 0.0 | 0.00 | 0.03 | 0.03 | 57 | |
| 20260503013302 | 42 | 231 | 0.0 | 0.0 | 0.00 | 0.03 | 0.03 | 57 | |
| 20260503012759 | 42 | 230 | 0.0 | 0.0 | 0.00 | 0.03 | 0.03 | 56 | |
| 20260503012256 | 43 | 230 | 0.0 | 0.0 | 0.00 | 0.03 | 0.03 | 55 | |
| 20260503011753 | 43 | 229 | 0.0 | 0.0 | 0.00 | 0.03 | 0.03 | 54 | |
| 20260503011250 | 43 | 224 | 0.0 | 0.0 | 0.00 | 0.03 | 0.03 | 53 | |
| 20260503010746 | 44 | 233 | 0.0 | 0.0 | 0.00 | 0.03 | 0.03 | 53 | |
| 20260503010243 | 44 | 234 | 0.0 | 0.0 | 0.00 | 0.03 | 0.03 | 51 | |
| 20260503005740 | 45 | 236 | 0.0 | 0.0 | 0.00 | 0.03 | 0.03 | 50 | |
| 20260503005238 | 45 | 238 | 0.0 | 0.0 | 0.00 | 0.03 | 0.03 | 48 | |
| 20260503004733 | 45 | 246 | 0.0 | 0.0 | 0.00 | 0.03 | 0.03 | 48 | |
| 20260503004232 | 46 | 258 | 0.0 | 0.0 | 0.00 | 0.03 | 0.03 | 47 | |
| 20260503003729 | 46 | 262 | 0.0 | 0.0 | 0.00 | 0.03 | 0.03 | 46 | |
| 20260503003226 | 46 | 265 | 0.0 | 0.9 | 0.00 | 0.03 | 0.03 | 46 | |
| 20260503002722 | 47 | 250 | 0.0 | 0.9 | 0.00 | 0.03 | 0.03 | 46 | |
| 20260503002219 | 47 | 260 | 0.0 | 1.7 | 0.00 | 0.03 | 0.03 | 46 | |
| 20260503001715 | 48 | 246 | 0.0 | 1.7 | 0.00 | 0.03 | 0.03 | 45 | |
| 20260503001212 | 48 | 270 | 0.9 | 2.6 | 0.00 | 0.03 | 0.03 | 44 | |
| 20260503000710 | 48 | 305 | 0.9 | 0.9 | 0.00 | 0.03 | 0.03 | 44 | |
| 20260503000207 | 48 | 257 | 0.0 | 0.9 | 0.00 | 0.03 | 0.03 | 45 | |
| 20260502235704 | 48 | 254 | 0.9 | 1.7 | 0.00 | 0.03 | 0.03 | 44 | |
| 20260502235202 | 48 | 306 | 0.0 | 1.7 | 0.00 | 0.03 | 0.03 | 43 | |
| 20260502234658 | 48 | 306 | 1.7 | 2.6 | 0.00 | 0.03 | 0.03 | 44 | |
| 20260502234155 | 48 | 262 | 0.0 | 1.7 | 0.00 | 0.03 | 0.03 | 44 | |
| 20260502233651 | 48 | 324 | 1.7 | 2.6 | 0.00 | 0.03 | 0.03 | 43 | |
| 20260502233148 | 48 | 244 | 0.9 | 0.9 | 0.00 | 0.03 | 0.03 | 44 | |
| 20260502232644 | 48 | 257 | 0.9 | 2.6 | 0.00 | 0.03 | 0.03 | 44 | |
| 20260502232141 | 48 | 267 | 1.7 | 1.7 | 0.00 | 0.03 | 0.03 | 44 | |
| 20260502231638 | 48 | 258 | 0.9 | 0.9 | 0.00 | 0.03 | 0.03 | 43 | |
| 20260502231136 | 48 | 261 | 0.0 | 0.9 | 0.00 | 0.03 | 0.03 | 43 | |
| 20260502230634 | 48 | 257 | 1.7 | 2.6 | 0.00 | 0.03 | 0.03 | 43 | |
| 20260502230132 | 48 | 252 | 0.9 | 2.6 | 0.00 | 0.03 | 0.03 | 43 | |
| 20260502225627 | 48 | 263 | 1.7 | 5.2 | 0.00 | 0.03 | 0.03 | 42 | |
| 20260502225125 | 48 | 322 | 3.5 | 4.3 | 0.00 | 0.03 | 0.03 | 43 | |
| 20260502224621 | 49 | 285 | 0.9 | 6.1 | 0.00 | 0.03 | 0.03 | 43 | |
| 20260502224118 | 48 | 262 | 2.6 | 5.2 | 0.00 | 0.03 | 0.03 | 42 | |
| 20260502223615 | 48 | 293 | 1.7 | 4.3 | 0.00 | 0.03 | 0.03 | 44 | |
| 20260502223114 | 49 | 320 | 3.5 | 5.2 | 0.00 | 0.03 | 0.03 | 42 | |
| 20260502222611 | 49 | 272 | 0.9 | 6.1 | 0.00 | 0.03 | 0.03 | 43 | |
| 20260502222107 | 49 | 279 | 0.9 | 1.7 | 0.00 | 0.03 | 0.03 | 44 | |
| 20260502221603 | 49 | 290 | 1.7 | 2.6 | 0.00 | 0.03 | 0.03 | 42 | |
| 20260502221100 | 49 | 294 | 2.6 | 4.3 | 0.00 | 0.03 | 0.03 | 43 | |
| 20260502220556 | 50 | 298 | 1.7 | 2.6 | 0.00 | 0.03 | 0.03 | 43 | |
| 20260502220053 | 50 | 316 | 0.9 | 1.7 | 0.00 | 0.03 | 0.03 | 44 | |
| 20260502215550 | 50 | 263 | 0.9 | 4.3 | 0.00 | 0.03 | 0.03 | 42 | |
| 20260502215047 | 51 | 267 | 2.6 | 7.0 | 0.00 | 0.03 | 0.03 | 40 | |
| 20260502214544 | 50 | 262 | 1.7 | 5.2 | 0.00 | 0.03 | 0.03 | 42 | |
| 20260502214041 | 49 | 317 | 2.6 | 4.3 | 0.00 | 0.03 | 0.03 | 41 | |
| 20260502213538 | 49 | 309 | 2.6 | 5.2 | 0.00 | 0.03 | 0.03 | 42 | |
| 20260502213036 | 49 | 303 | 4.3 | 7.0 | 0.00 | 0.03 | 0.03 | 41 | |
| 20260502212534 | 49 | 313 | 2.6 | 5.2 | 0.00 | 0.03 | 0.03 | 41 | |
| 20260502212032 | 49 | 341 | 3.5 | 5.2 | 0.00 | 0.03 | 0.03 | 42 |